Hourly Data Report for October 30, 2016

All times are specified in Local Standard Time (LST). Add 1 hour to adjust for Daylight Saving Time where and when it is observed.

RESOLUTE BAY A
NUNAVUT

74°43'01.000" N
94°58'10.000" W
67.70 m
2403498
71924
YRB

Download Data

Hourly Data (October 2016)
Hourly Data Report for October 30, 2016
Temp Definition
°C
Dew Point Temp Definition
°C
Rel Hum Definition
%
Wind Dir Definition
10's deg

Wind Spd Definition
km/h
Visibility Definition
km
Stn Press Definition
kPa
Hmdx Definition


Wind Chill Definition


Weather Definition


TIME
00:00 Legend Double Dagger -18.2 -23.6 63 35 20 24.1 101.32   -28 Blowing Snow
01:00 Legend Double Dagger -18.7 -23.9 64 4 19 24.1 101.30   -29 Blowing Snow
02:00 Legend Double Dagger -19.2 -24.8 62 28 13 24.1 101.34   -27 Blowing Snow
03:00 Legend Double Dagger -20.5 -25.1 67 27 12 24.1 101.33   -29 Clear
04:00 Legend Double Dagger -21.1 -25.6 68 33 21 24.1 101.32   -32 LegendNANA
05:00 Legend Double Dagger -20.6 -24.9 69 1 27 24.1 101.29   -33 LegendNANA
06:00 Legend Double Dagger -20.3 -24.4 70 35 21 24.1 101.28   -31 Clear
07:00 Legend Double Dagger -21.5 -25.8 69 28 8 24.1 101.31   -28 LegendNANA
08:00 Legend Double Dagger -22.1 -26.4 69 34 19 24.1 101.28   -33 LegendNANA
09:00 Legend Double Dagger -22.3 -26.4 70 36 23 24.1 101.25   -34 Clear
10:00 Legend Double Dagger -22.1 -26.0 71 32 27 24.1 101.25   -35 LegendNANA
11:00 Legend Double Dagger -21.8 -25.6 72 1 26 24.1 101.18   -34 LegendNANA
12:00 Legend Double Dagger -21.9 -25.7 72 35 29 24.1 101.17   -35 Mainly Clear
13:00 Legend Double Dagger -22.4 -26.0 73 34 21 24.1 101.23   -34 LegendNANA
14:00 Legend Double Dagger -21.8 -25.0 76 34 16 3.2 101.20   -32 Fog
15:00 Legend Double Dagger -21.4 -24.6 76 35 32 1.0 101.13   -35 Fog,Blowing Snow
16:00 Legend Double Dagger -21.5 -24.8 75 35 29 14.5 101.13   -34 LegendNANA
17:00 Legend Double Dagger -21.7 -24.9 76 35 19 16.1 101.12   -32 Ice Crystals
18:00 Legend Double Dagger -20.9 -23.8 78 33 19 2.4 101.13   -31 Ice Crystals,Fog
19:00 Legend Double Dagger -21.5 -24.7 76 35 32 4.0 101.03   -35 Ice Crystals,Fog
20:00 Legend Double Dagger -21.4 -24.4 77 34 21 16.1 101.00   -32 Ice Crystals
21:00 Legend Double Dagger -21.2 -24.1 78 35 20 24.1 100.96   -32 Ice Crystals
22:00 Legend Double Dagger -20.2 -23.1 78 35 26 24.1 100.90   -32 Ice Crystals
23:00 Legend Double Dagger -20.6 -23.8 76 1 32 24.1 100.84   -34 Ice Crystals

Notes on Data Quality.

Legend

  • E = Estimated
  • M = Missing
  • NA = Not Available
  • ‡ = Partner data that is not subject to review by the National Climate Archives
Date modified: